Time,TemperatureF,DewpointF,PressureIn,WindDirection,WindDirectionDegrees,WindSpeedMPH,WindSpeedGustMPH,Humidity,HourlyPrecipIn,Conditions,Clouds,dailyrainin,SoftwareType,DateUTC
2013-02-17 00:00:00,48.2,30.9,30.11,SW,225,0.0,1.0,51,0.00,,,0.00,LWC V2.00 B2112,2013-02-17 06:00:00,
2013-02-17 00:05:00,48.2,29.9,30.11,SW,227,4.0,4.0,49,0.00,,,0.00,LWC V2.00 B2112,2013-02-17 06:05:00,
2013-02-17 00:10:00,48.3,30.0,30.11,SW,227,0.0,1.0,49,0.00,,,0.00,LWC V2.00 B2112,2013-02-17 06:10:00,
2013-02-17 00:15:00,48.4,30.1,30.11,SW,230,0.0,0.0,49,0.00,,,0.00,LWC V2.00 B2112,2013-02-17 06:15:00,
2013-02-17 00:20:00,48.5,30.2,30.10,WSW,240,0.0,2.0,49,0.00,,,0.00,LWC V2.00 B2112,2013-02-17 06:20:00,
2013-02-17 00:25:00,48.6,30.3,30.10,WSW,240,1.0,1.0,49,0.00,,,0.00,LWC V2.00 B2112,2013-02-17 06:25:00,
2013-02-17 00:30:00,48.5,30.2,30.10,WSW,240,0.0,0.0,49,0.00,,,0.00,LWC V2.00 B2112,2013-02-17 06:30:00,
2013-02-17 00:35:00,48.3,30.0,30.10,WSW,240,0.0,0.0,49,0.00,,,0.00,LWC V2.00 B2112,2013-02-17 06:35:00,
2013-02-17 00:40:00,48.2,30.4,30.10,WSW,240,0.0,2.0,50,0.00,,,0.00,LWC V2.00 B2112,2013-02-17 06:40:00,
2013-02-17 00:45:00,48.0,30.3,30.09,WSW,241,0.0,0.0,50,0.00,,,0.00,LWC V2.00 B2112,2013-02-17 06:45:00,
2013-02-17 00:50:00,48.1,30.3,30.09,NW,313,0.0,1.0,50,0.00,,,0.00,LWC V2.00 B2112,2013-02-17 06:50:00,
2013-02-17 00:55:00,48.0,30.3,30.09,NW,313,0.0,1.0,50,0.00,,,0.00,LWC V2.00 B2112,2013-02-17 06:55:00,
2013-02-17 01:00:00,48.0,30.3,30.09,WNW,294,0.0,2.0,50,0.00,,,0.00,LWC V2.00 B2112,2013-02-17 07:00:00,
2013-02-17 01:05:00,48.0,30.7,30.09,NW,312,0.0,0.0,51,0.00,,,0.00,LWC V2.00 B2112,2013-02-17 07:05:00,
2013-02-17 01:10:00,48.0,30.7,30.09,WNW,290,0.0,2.0,51,0.00,,,0.00,LWC V2.00 B2112,2013-02-17 07:10:00,
2013-02-17 01:15:00,47.9,30.7,30.09,WNW,299,1.0,1.0,51,0.00,,,0.00,LWC V2.00 B2112,2013-02-17 07:15:00,
2013-02-17 01:20:00,48.1,30.3,30.09,WNW,296,0.0,1.0,50,0.00,,,0.00,LWC V2.00 B2112,2013-02-17 07:20:00,
2013-02-17 01:25:00,48.0,30.7,30.09,WNW,282,0.0,5.0,51,0.00,,,0.00,LWC V2.00 B2112,2013-02-17 07:25:00,
2013-02-17 01:30:00,48.0,30.3,30.09,WNW,282,0.0,1.0,50,0.00,,,0.00,LWC V2.00 B2112,2013-02-17 07:30:00,
2013-02-17 01:35:00,48.0,30.3,30.09,WNW,289,0.0,1.0,50,0.00,,,0.00,LWC V2.00 B2112,2013-02-17 07:35:00,
2013-02-17 01:40:00,48.3,30.0,30.09,West,281,0.0,4.0,49,0.00,,,0.00,LWC V2.00 B2112,2013-02-17 07:40:00,
2013-02-17 01:45:00,48.5,30.2,30.09,NW,313,0.0,0.0,49,0.00,,,0.00,LWC V2.00 B2112,2013-02-17 07:45:00,
2013-02-17 01:50:00,48.5,30.7,30.09,NW,313,0.0,0.0,50,0.00,,,0.00,LWC V2.00 B2112,2013-02-17 07:50:00,
2013-02-17 01:55:00,48.3,30.5,30.08,NW,313,0.0,0.0,50,0.00,,,0.00,LWC V2.00 B2112,2013-02-17 07:55:00,
2013-02-17 02:00:00,48.1,30.3,30.08,NW,311,0.0,0.0,50,0.00,,,0.00,LWC V2.00 B2112,2013-02-17 08:00:00,
2013-02-17 02:05:00,47.9,30.2,30.08,NW,311,0.0,1.0,50,0.00,,,0.00,LWC V2.00 B2112,2013-02-17 08:05:00,
2013-02-17 02:10:00,47.7,30.5,30.08,NW,311,0.0,0.0,51,0.00,,,0.00,LWC V2.00 B2112,2013-02-17 08:10:00,
2013-02-17 02:15:00,47.6,30.4,30.08,NW,311,0.0,0.0,51,0.00,,,0.00,LWC V2.00 B2112,2013-02-17 08:15:00,
2013-02-17 02:20:00,47.5,30.3,30.08,NW,311,0.0,1.0,51,0.00,,,0.00,LWC V2.00 B2112,2013-02-17 08:20:00,
2013-02-17 02:25:00,47.5,30.3,30.08,NW,310,0.0,1.0,51,0.00,,,0.00,LWC V2.00 B2112,2013-02-17 08:25:00,
2013-02-17 02:30:00,47.5,30.8,30.08,NW,309,0.0,1.0,52,0.00,,,0.00,LWC V2.00 B2112,2013-02-17 08:30:00,
2013-02-17 02:35:00,47.3,30.6,30.08,NW,309,0.0,0.0,52,0.00,,,0.00,LWC V2.00 B2112,2013-02-17 08:35:00,
2013-02-17 02:40:00,47.1,30.4,30.08,NW,309,0.0,1.0,52,0.00,,,0.00,LWC V2.00 B2112,2013-02-17 08:40:00,
2013-02-17 02:45:00,47.1,29.9,30.08,West,265,0.0,2.0,51,0.00,,,0.00,LWC V2.00 B2112,2013-02-17 08:45:00,
2013-02-17 02:50:00,47.3,30.1,30.08,West,265,0.0,5.0,51,0.00,,,0.00,LWC V2.00 B2112,2013-02-17 08:50:00,
2013-02-17 02:55:00,47.7,30.0,30.08,WNW,296,0.0,6.0,50,0.00,,,0.00,LWC V2.00 B2112,2013-02-17 08:55:00,
2013-02-17 03:00:00,47.9,30.2,30.08,West,269,0.0,2.0,50,0.00,,,0.00,LWC V2.00 B2112,2013-02-17 09:00:00,
2013-02-17 03:05:00,48.0,30.3,30.08,West,269,0.0,2.0,50,0.00,,,0.00,LWC V2.00 B2112,2013-02-17 09:05:00,
2013-02-17 03:10:00,48.1,29.9,30.07,WNW,282,1.0,4.0,49,0.00,,,0.00,LWC V2.00 B2112,2013-02-17 09:10:00,
2013-02-17 03:15:00,48.2,30.9,30.07,WNW,291,4.0,4.0,51,0.00,,,0.00,LWC V2.00 B2112,2013-02-17 09:15:00,
2013-02-17 03:20:00,48.3,30.0,30.07,WNW,294,0.0,1.0,49,0.00,,,0.00,LWC V2.00 B2112,2013-02-17 09:20:00,
2013-02-17 03:25:00,48.3,30.0,30.07,WNW,285,0.0,1.0,49,0.00,,,0.00,LWC V2.00 B2112,2013-02-17 09:25:00,
2013-02-17 03:30:00,48.3,30.0,30.07,NW,311,0.0,5.0,49,0.00,,,0.00,LWC V2.00 B2112,2013-02-17 09:30:00,
2013-02-17 03:35:00,48.2,29.9,30.07,WSW,250,0.0,4.0,49,0.00,,,0.00,LWC V2.00 B2112,2013-02-17 09:35:00,
2013-02-17 03:40:00,48.1,29.9,30.07,WSW,244,0.0,1.0,49,0.00,,,0.00,LWC V2.00 B2112,2013-02-17 09:40:00,
2013-02-17 03:45:00,48.0,29.8,30.07,WSW,243,0.0,7.0,49,0.00,,,0.00,LWC V2.00 B2112,2013-02-17 09:45:00,
2013-02-17 03:50:00,47.8,29.6,30.07,NW,315,1.0,5.0,49,0.00,,,0.00,LWC V2.00 B2112,2013-02-17 09:50:00,
2013-02-17 03:55:00,47.7,30.0,30.07,WNW,292,0.0,6.0,50,0.00,,,0.00,LWC V2.00 B2112,2013-02-17 09:55:00,
2013-02-17 04:00:00,47.6,29.9,30.07,West,275,0.0,1.0,50,0.00,,,0.00,LWC V2.00 B2112,2013-02-17 10:00:00,
2013-02-17 04:05:00,47.3,29.6,30.07,West,271,0.0,5.0,50,0.00,,,0.00,LWC V2.00 B2112,2013-02-17 10:05:00,
2013-02-17 04:10:00,47.1,29.4,30.07,West,265,0.0,3.0,50,0.00,,,0.00,LWC V2.00 B2112,2013-02-17 10:10:00,
2013-02-17 04:15:00,46.9,29.7,30.07,WNW,298,0.0,5.0,51,0.00,,,0.00,LWC V2.00 B2112,2013-02-17 10:15:00,
2013-02-17 04:20:00,46.8,29.6,30.07,WNW,301,0.0,2.0,51,0.00,,,0.00,LWC V2.00 B2112,2013-02-17 10:20:00,
2013-02-17 04:25:00,46.8,29.6,30.07,West,269,0.0,6.0,51,0.00,,,0.00,LWC V2.00 B2112,2013-02-17 10:25:00,
2013-02-17 04:30:00,46.7,29.5,30.07,WSW,257,1.0,1.0,51,0.00,,,0.00,LWC V2.00 B2112,2013-02-17 10:30:00,
2013-02-17 04:35:00,46.5,29.4,30.07,West,281,0.0,1.0,51,0.00,,,0.00,LWC V2.00 B2112,2013-02-17 10:35:00,
2013-02-17 04:40:00,46.3,29.6,30.07,West,280,0.0,1.0,52,0.00,,,0.00,LWC V2.00 B2112,2013-02-17 10:40:00,
2013-02-17 04:45:00,46.1,29.5,30.07,WSW,244,3.0,3.0,52,0.00,,,0.00,LWC V2.00 B2112,2013-02-17 10:45:00,
2013-02-17 04:50:00,45.8,29.7,30.07,WSW,254,0.0,2.0,53,0.00,,,0.00,LWC V2.00 B2112,2013-02-17 10:50:00,
2013-02-17 04:55:00,45.5,29.4,30.06,WSW,255,0.0,1.0,53,0.00,,,0.00,LWC V2.00 B2112,2013-02-17 10:55:00,
2013-02-17 05:00:00,45.3,29.2,30.06,WSW,255,0.0,1.0,53,0.00,,,0.00,LWC V2.00 B2112,2013-02-17 11:00:00,
2013-02-17 05:05:00,45.1,29.5,30.06,WNW,282,0.0,2.0,54,0.00,,,0.00,LWC V2.00 B2112,2013-02-17 11:05:00,
2013-02-17 05:10:00,45.0,29.4,30.06,West,273,0.0,2.0,54,0.00,,,0.00,LWC V2.00 B2112,2013-02-17 11:10:00,
2013-02-17 05:15:00,44.7,29.1,30.06,West,273,0.0,0.0,54,0.00,,,0.00,LWC V2.00 B2112,2013-02-17 11:15:00,
2013-02-17 05:20:00,44.6,29.4,30.06,West,273,0.0,0.0,55,0.00,,,0.00,LWC V2.00 B2112,2013-02-17 11:20:00,
2013-02-17 05:25:00,44.3,29.2,30.06,West,273,0.0,1.0,55,0.00,,,0.00,LWC V2.00 B2112,2013-02-17 11:25:00,
2013-02-17 05:30:00,44.1,29.4,30.06,West,273,0.0,0.0,56,0.00,,,0.00,LWC V2.00 B2112,2013-02-17 11:30:00,
2013-02-17 05:35:00,43.9,30.1,30.07,West,273,0.0,0.0,58,0.00,,,0.00,LWC V2.00 B2112,2013-02-17 11:35:00,
2013-02-17 05:40:00,43.6,29.8,30.07,West,273,0.0,0.0,58,0.00,,,0.00,LWC V2.00 B2112,2013-02-17 11:40:00,
2013-02-17 05:45:00,43.1,29.8,30.07,West,273,0.0,0.0,59,0.00,,,0.00,LWC V2.00 B2112,2013-02-17 11:45:00,
2013-02-17 05:50:00,42.7,29.8,30.07,West,273,0.0,0.0,60,0.00,,,0.00,LWC V2.00 B2112,2013-02-17 11:50:00,
2013-02-17 05:55:00,42.4,29.9,30.07,NW,319,0.0,1.0,61,0.00,,,0.00,LWC V2.00 B2112,2013-02-17 11:55:00,
2013-02-17 06:00:00,42.2,29.7,30.07,NW,319,0.0,0.0,61,0.00,,,0.00,LWC V2.00 B2112,2013-02-17 12:00:00,
2013-02-17 06:05:00,41.9,29.8,30.07,NW,319,0.0,0.0,62,0.00,,,0.00,LWC V2.00 B2112,2013-02-17 12:05:00,
2013-02-17 06:10:00,41.5,29.9,30.06,NW,319,0.0,0.0,63,0.00,,,0.00,LWC V2.00 B2112,2013-02-17 12:10:00,
2013-02-17 06:15:00,41.3,29.7,30.07,NW,319,0.0,0.0,63,0.00,,,0.00,LWC V2.00 B2112,2013-02-17 12:15:00,
2013-02-17 06:20:00,40.8,29.6,30.07,NW,319,0.0,0.0,64,0.00,,,0.00,LWC V2.00 B2112,2013-02-17 12:20:00,
2013-02-17 06:25:00,40.4,29.6,30.07,NW,319,0.0,0.0,65,0.00,,,0.00,LWC V2.00 B2112,2013-02-17 12:25:00,
2013-02-17 06:30:00,40.0,29.6,30.07,NW,319,0.0,0.0,66,0.00,,,0.00,LWC V2.00 B2112,2013-02-17 12:30:00,
2013-02-17 06:35:00,39.5,29.1,30.07,NW,319,0.0,0.0,66,0.00,,,0.00,LWC V2.00 B2112,2013-02-17 12:35:00,
2013-02-17 06:40:00,39.1,29.4,30.07,NW,319,0.0,0.0,68,0.00,,,0.00,LWC V2.00 B2112,2013-02-17 12:40:00,
2013-02-17 06:45:00,38.7,29.1,30.06,NW,319,0.0,0.0,68,0.00,,,0.00,LWC V2.00 B2112,2013-02-17 12:45:00,
2013-02-17 06:50:00,38.3,29.0,30.07,NW,319,0.0,0.0,69,0.00,,,0.00,LWC V2.00 B2112,2013-02-17 12:50:00,
2013-02-17 06:55:00,38.1,29.2,30.07,NW,319,0.0,0.0,70,0.00,,,0.00,LWC V2.00 B2112,2013-02-17 12:55:00,
2013-02-17 07:00:00,37.8,29.3,30.07,NW,319,0.0,1.0,71,0.00,,,0.00,LWC V2.00 B2112,2013-02-17 13:00:00,
2013-02-17 07:05:00,37.7,29.2,30.08,NW,319,0.0,0.0,71,0.00,,,0.00,LWC V2.00 B2112,2013-02-17 13:05:00,
2013-02-17 07:10:00,37.7,29.5,30.07,NW,319,0.0,0.0,72,0.00,,,0.00,LWC V2.00 B2112,2013-02-17 13:10:00,
2013-02-17 07:15:00,37.7,29.5,30.08,NW,319,0.0,0.0,72,0.00,,,0.00,LWC V2.00 B2112,2013-02-17 13:15:00,
2013-02-17 07:20:00,37.8,29.6,30.08,NW,319,0.0,0.0,72,0.00,,,0.00,LWC V2.00 B2112,2013-02-17 13:20:00,
2013-02-17 07:25:00,37.8,29.9,30.08,NW,319,0.0,0.0,73,0.00,,,0.00,LWC V2.00 B2112,2013-02-17 13:25:00,
2013-02-17 07:30:00,37.9,29.7,30.08,NW,319,0.0,0.0,72,0.00,,,0.00,LWC V2.00 B2112,2013-02-17 13:30:00,
2013-02-17 07:35:00,38.1,29.9,30.08,NW,319,0.0,0.0,72,0.00,,,0.00,LWC V2.00 B2112,2013-02-17 13:35:00,
2013-02-17 07:40:00,38.5,29.9,30.08,NW,319,0.0,1.0,71,0.00,,,0.00,LWC V2.00 B2112,2013-02-17 13:40:00,
2013-02-17 07:45:00,39.5,30.5,30.08,WSW,251,1.0,3.0,70,0.00,,,0.00,LWC V2.00 B2112,2013-02-17 13:45:00,
2013-02-17 07:50:00,40.6,30.9,30.08,WSW,254,0.0,1.0,68,0.00,,,0.00,LWC V2.00 B2112,2013-02-17 13:50:00,
2013-02-17 07:55:00,41.6,31.1,30.08,WSW,251,0.0,2.0,66,0.00,,,0.00,LWC V2.00 B2112,2013-02-17 13:55:00,
2013-02-17 08:00:00,42.8,31.5,30.08,SSW,201,0.0,0.0,64,0.00,,,0.00,LWC V2.00 B2112,2013-02-17 14:00:00,
2013-02-17 08:05:00,43.9,31.7,30.08,WSW,250,0.0,4.0,62,0.00,,,0.00,LWC V2.00 B2112,2013-02-17 14:05:00,
2013-02-17 08:10:00,44.8,31.8,30.08,WSW,251,1.0,2.0,60,0.00,,,0.00,LWC V2.00 B2112,2013-02-17 14:10:00,
2013-02-17 08:15:00,45.6,32.1,30.08,WSW,245,0.0,5.0,59,0.00,,,0.00,LWC V2.00 B2112,2013-02-17 14:15:00,
2013-02-17 08:20:00,46.3,32.3,30.08,South,182,0.0,0.0,58,0.00,,,0.00,LWC V2.00 B2112,2013-02-17 14:20:00,
2013-02-17 08:25:00,46.9,32.5,30.08,West,280,1.0,4.0,57,0.00,,,0.00,LWC V2.00 B2112,2013-02-17 14:25:00,
2013-02-17 08:30:00,47.5,32.6,30.08,SSW,196,0.0,5.0,56,0.00,,,0.00,LWC V2.00 B2112,2013-02-17 14:30:00,
2013-02-17 08:35:00,48.1,33.2,30.09,West,277,0.0,4.0,56,0.00,,,0.00,LWC V2.00 B2112,2013-02-17 14:35:00,
2013-02-17 08:40:00,48.8,32.9,30.09,WNW,298,1.0,3.0,54,0.00,,,0.00,LWC V2.00 B2112,2013-02-17 14:40:00,
2013-02-17 08:45:00,49.4,33.0,30.09,WNW,298,0.0,5.0,53,0.00,,,0.00,LWC V2.00 B2112,2013-02-17 14:45:00,
2013-02-17 08:50:00,50.0,33.1,30.09,SW,232,4.0,5.0,52,0.00,,,0.00,LWC V2.00 B2112,2013-02-17 14:50:00,
2013-02-17 08:55:00,50.5,33.5,30.09,NNW,333,2.0,7.0,52,0.00,,,0.00,LWC V2.00 B2112,2013-02-17 14:55:00,
2013-02-17 09:00:00,51.1,34.1,30.09,WNW,294,0.0,5.0,52,0.00,,,0.00,LWC V2.00 B2112,2013-02-17 15:00:00,
2013-02-17 09:05:00,51.7,34.2,30.09,SSW,196,3.0,3.0,51,0.00,,,0.00,LWC V2.00 B2112,2013-02-17 15:05:00,
2013-02-17 09:10:00,52.4,34.3,30.09,WSW,246,2.0,6.0,50,0.00,,,0.00,LWC V2.00 B2112,2013-02-17 15:10:00,
2013-02-17 09:15:00,53.3,34.1,30.09,NW,321,1.0,6.0,48,0.00,,,0.00,LWC V2.00 B2112,2013-02-17 15:15:00,
2013-02-17 09:20:00,53.9,34.1,30.09,SW,234,0.0,8.0,47,0.00,,,0.00,LWC V2.00 B2112,2013-02-17 15:20:00,
2013-02-17 09:25:00,54.4,34.6,30.09,SW,225,2.0,11.0,47,0.00,,,0.00,LWC V2.00 B2112,2013-02-17 15:25:00,
2013-02-17 09:30:00,55.0,34.6,30.09,WSW,245,6.0,7.0,46,0.00,,,0.00,LWC V2.00 B2112,2013-02-17 15:30:00,
2013-02-17 09:35:00,55.5,34.5,30.09,WSW,250,0.0,10.0,45,0.00,,,0.00,LWC V2.00 B2112,2013-02-17 15:35:00,
2013-02-17 09:40:00,56.0,35.0,30.09,WSW,252,0.0,8.0,45,0.00,,,0.00,LWC V2.00 B2112,2013-02-17 15:40:00,
2013-02-17 09:45:00,56.4,34.8,30.09,ENE,65,0.0,7.0,44,0.00,,,0.00,LWC V2.00 B2112,2013-02-17 15:45:00,
2013-02-17 09:50:00,56.8,34.5,30.09,WNW,287,2.0,7.0,43,0.00,,,0.00,LWC V2.00 B2112,2013-02-17 15:50:00,
2013-02-17 09:55:00,57.1,34.8,30.09,WNW,300,13.0,13.0,43,0.00,,,0.00,LWC V2.00 B2112,2013-02-17 15:55:00,
2013-02-17 10:00:00,57.5,34.6,30.09,West,261,1.0,11.0,42,0.00,,,0.00,LWC V2.00 B2112,2013-02-17 16:00:00,
2013-02-17 10:05:00,58.0,34.4,30.09,NE,44,2.0,13.0,41,0.00,,,0.00,LWC V2.00 B2112,2013-02-17 16:05:00,
2013-02-17 10:10:00,58.5,34.3,30.09,WSW,252,5.0,12.0,40,0.00,,,0.00,LWC V2.00 B2112,2013-02-17 16:10:00,
2013-02-17 10:15:00,58.7,35.1,30.08,NNW,334,1.0,8.0,41,0.00,,,0.00,LWC V2.00 B2112,2013-02-17 16:15:00,
2013-02-17 10:20:00,59.3,34.3,30.08,WSW,254,3.0,12.0,39,0.00,,,0.00,LWC V2.00 B2112,2013-02-17 16:20:00,
2013-02-17 10:25:00,59.9,35.5,30.08,West,260,1.0,9.0,40,0.00,,,0.00,LWC V2.00 B2112,2013-02-17 16:25:00,
2013-02-17 10:30:00,60.6,35.5,30.08,South,184,0.0,5.0,39,0.00,,,0.00,LWC V2.00 B2112,2013-02-17 16:30:00,
2013-02-17 10:35:00,60.9,34.5,30.08,SSW,213,2.0,8.0,37,0.00,,,0.00,LWC V2.00 B2112,2013-02-17 16:35:00,
2013-02-17 10:40:00,61.2,33.3,30.08,SSE,154,1.0,14.0,35,0.00,,,0.00,LWC V2.00 B2112,2013-02-17 16:40:00,
2013-02-17 10:45:00,61.2,33.3,30.08,WSW,258,0.0,9.0,35,0.00,,,0.00,LWC V2.00 B2112,2013-02-17 16:45:00,
2013-02-17 10:50:00,61.5,34.3,30.07,South,182,0.0,12.0,36,0.00,,,0.00,LWC V2.00 B2112,2013-02-17 16:50:00,
2013-02-17 10:55:00,62.0,34.0,30.08,WNW,300,9.0,9.0,35,0.00,,,0.00,LWC V2.00 B2112,2013-02-17 16:55:00,
2013-02-17 11:00:00,62.4,33.7,30.07,West,261,0.0,9.0,34,0.00,,,0.00,LWC V2.00 B2112,2013-02-17 17:00:00,
2013-02-17 11:05:00,62.4,32.9,30.07,South,178,6.0,7.0,33,0.00,,,0.00,LWC V2.00 B2112,2013-02-17 17:05:00,
2013-02-17 11:10:00,62.6,34.6,30.07,SSE,166,5.0,10.0,35,0.00,,,0.00,LWC V2.00 B2112,2013-02-17 17:10:00,
2013-02-17 11:15:00,63.1,35.7,30.07,WSW,248,3.0,3.0,36,0.00,,,0.00,LWC V2.00 B2112,2013-02-17 17:15:00,
2013-02-17 11:20:00,63.7,34.1,30.07,WSW,255,0.0,11.0,33,0.00,,,0.00,LWC V2.00 B2112,2013-02-17 17:20:00,
2013-02-17 11:25:00,64.2,34.5,30.06,NW,311,7.0,7.0,33,0.00,,,0.00,LWC V2.00 B2112,2013-02-17 17:25:00,
2013-02-17 11:30:00,64.5,34.8,30.06,South,174,8.0,13.0,33,0.00,,,0.00,LWC V2.00 B2112,2013-02-17 17:30:00,
2013-02-17 11:35:00,64.6,34.8,30.06,SW,216,3.0,5.0,33,0.00,,,0.00,LWC V2.00 B2112,2013-02-17 17:35:00,
2013-02-17 11:40:00,64.9,35.9,30.05,WSW,241,5.0,8.0,34,0.00,,,0.00,LWC V2.00 B2112,2013-02-17 17:40:00,
2013-02-17 11:45:00,65.3,36.2,30.05,WSW,254,3.0,6.0,34,0.00,,,0.00,LWC V2.00 B2112,2013-02-17 17:45:00,
2013-02-17 11:50:00,65.5,35.6,30.04,SSW,207,6.0,10.0,33,0.00,,,0.00,LWC V2.00 B2112,2013-02-17 17:50:00,
2013-02-17 11:55:00,65.5,35.6,30.04,WNW,284,5.0,7.0,33,0.00,,,0.00,LWC V2.00 B2112,2013-02-17 17:55:00,
2013-02-17 12:00:00,65.8,35.9,30.04,WSW,237,6.0,13.0,33,0.00,,,0.00,LWC V2.00 B2112,2013-02-17 18:00:00,
2013-02-17 12:05:00,65.8,35.9,30.03,South,171,9.0,9.0,33,0.00,,,0.00,LWC V2.00 B2112,2013-02-17 18:05:00,
2013-02-17 12:10:00,65.4,36.3,30.03,WSW,242,5.0,6.0,34,0.00,,,0.00,LWC V2.00 B2112,2013-02-17 18:10:00,
2013-02-17 12:15:00,65.9,36.7,30.03,NW,325,1.0,13.0,34,0.00,,,0.00,LWC V2.00 B2112,2013-02-17 18:15:00,
2013-02-17 12:20:00,66.2,36.2,30.03,West,277,4.0,15.0,33,0.00,,,0.00,LWC V2.00 B2112,2013-02-17 18:20:00,
2013-02-17 12:25:00,66.2,36.2,30.02,WNW,292,1.0,7.0,33,0.00,,,0.00,LWC V2.00 B2112,2013-02-17 18:25:00,
2013-02-17 12:30:00,66.8,36.8,30.02,SSW,205,6.0,11.0,33,0.00,,,0.00,LWC V2.00 B2112,2013-02-17 18:30:00,
2013-02-17 12:35:00,67.2,37.1,30.02,South,179,1.0,6.0,33,0.00,,,0.00,LWC V2.00 B2112,2013-02-17 18:35:00,
2013-02-17 12:40:00,67.2,37.1,30.02,SSW,211,1.0,15.0,33,0.00,,,0.00,LWC V2.00 B2112,2013-02-17 18:40:00,
2013-02-17 12:45:00,67.2,37.9,30.01,North,355,6.0,7.0,34,0.00,,,0.00,LWC V2.00 B2112,2013-02-17 18:45:00,
2013-02-17 12:50:00,67.4,38.1,30.00,SSW,192,8.0,12.0,34,0.00,,,0.00,LWC V2.00 B2112,2013-02-17 18:50:00,
2013-02-17 12:55:00,67.3,38.0,30.00,South,190,4.0,16.0,34,0.00,,,0.00,LWC V2.00 B2112,2013-02-17 18:55:00,
2013-02-17 13:00:00,67.3,38.0,30.00,WSW,246,11.0,11.0,34,0.00,,,0.00,LWC V2.00 B2112,2013-02-17 19:00:00,
2013-02-17 13:05:00,67.5,37.4,29.99,SW,226,1.0,12.0,33,0.00,,,0.00,LWC V2.00 B2112,2013-02-17 19:05:00,
2013-02-17 13:10:00,67.6,38.2,29.99,SSW,200,13.0,15.0,34,0.00,,,0.00,LWC V2.00 B2112,2013-02-17 19:10:00,
2013-02-17 13:15:00,67.4,38.1,29.99,SW,223,6.0,12.0,34,0.00,,,0.00,LWC V2.00 B2112,2013-02-17 19:15:00,
2013-02-17 13:20:00,67.2,37.9,29.98,South,187,7.0,12.0,34,0.00,,,0.00,LWC V2.00 B2112,2013-02-17 19:20:00,
2013-02-17 13:25:00,67.3,38.7,29.98,SW,225,6.0,11.0,35,0.00,,,0.00,LWC V2.00 B2112,2013-02-17 19:25:00,
2013-02-17 13:30:00,67.6,37.5,29.98,South,170,8.0,12.0,33,0.00,,,0.00,LWC V2.00 B2112,2013-02-17 19:30:00,
2013-02-17 13:35:00,67.5,38.1,29.97,SSW,200,6.0,8.0,34,0.00,,,0.00,LWC V2.00 B2112,2013-02-17 19:35:00,
2013-02-17 13:40:00,67.6,37.5,29.97,West,271,6.0,10.0,33,0.00,,,0.00,LWC V2.00 B2112,2013-02-17 19:40:00,
2013-02-17 13:45:00,67.7,37.6,29.96,WNW,290,9.0,12.0,33,0.00,,,0.00,LWC V2.00 B2112,2013-02-17 19:45:00,
2013-02-17 13:50:00,67.4,37.3,29.96,South,170,11.0,15.0,33,0.00,,,0.00,LWC V2.00 B2112,2013-02-17 19:50:00,
2013-02-17 13:55:00,67.5,36.6,29.95,SSW,193,5.0,8.0,32,0.00,,,0.00,LWC V2.00 B2112,2013-02-17 19:55:00,
2013-02-17 14:00:00,67.6,35.9,29.95,WSW,237,0.0,14.0,31,0.00,,,0.00,LWC V2.00 B2112,2013-02-17 20:00:00,
2013-02-17 14:05:00,68.1,35.5,29.95,SSW,192,5.0,14.0,30,0.00,,,0.00,LWC V2.00 B2112,2013-02-17 20:05:00,
2013-02-17 14:10:00,68.3,36.5,29.95,WNW,289,1.0,6.0,31,0.00,,,0.00,LWC V2.00 B2112,2013-02-17 20:10:00,
2013-02-17 14:15:00,68.5,35.0,29.95,SW,215,7.0,11.0,29,0.00,,,0.00,LWC V2.00 B2112,2013-02-17 20:15:00,
2013-02-17 14:20:00,68.4,34.9,29.95,SSW,210,6.0,13.0,29,0.00,,,0.00,LWC V2.00 B2112,2013-02-17 20:20:00,
2013-02-17 14:25:00,68.5,35.8,29.94,East,82,6.0,11.0,30,0.00,,,0.00,LWC V2.00 B2112,2013-02-17 20:25:00,
2013-02-17 14:30:00,68.5,36.7,29.93,WSW,240,4.0,8.0,31,0.00,,,0.00,LWC V2.00 B2112,2013-02-17 20:30:00,
2013-02-17 14:35:00,68.7,36.8,29.93,WNW,302,1.0,14.0,31,0.00,,,0.00,LWC V2.00 B2112,2013-02-17 20:35:00,
2013-02-17 14:40:00,68.5,35.8,29.93,SSW,196,8.0,14.0,30,0.00,,,0.00,LWC V2.00 B2112,2013-02-17 20:40:00,
2013-02-17 14:45:00,68.6,36.8,29.93,NW,322,4.0,13.0,31,0.00,,,0.00,LWC V2.00 B2112,2013-02-17 20:45:00,
2013-02-17 14:50:00,69.0,37.9,29.92,WSW,253,6.0,11.0,32,0.00,,,0.00,LWC V2.00 B2112,2013-02-17 20:50:00,
2013-02-17 14:55:00,69.3,36.5,29.92,SSW,209,6.0,11.0,30,0.00,,,0.00,LWC V2.00 B2112,2013-02-17 20:55:00,
2013-02-17 15:00:00,69.1,37.2,29.92,WNW,294,12.0,15.0,31,0.00,,,0.00,LWC V2.00 B2112,2013-02-17 21:00:00,
2013-02-17 15:05:00,69.2,37.3,29.91,SSW,200,2.0,12.0,31,0.00,,,0.00,LWC V2.00 B2112,2013-02-17 21:05:00,
2013-02-17 15:10:00,69.4,36.6,29.92,SSW,202,7.0,14.0,30,0.00,,,0.00,LWC V2.00 B2112,2013-02-17 21:10:00,
2013-02-17 15:15:00,69.5,37.5,29.91,SSW,195,4.0,8.0,31,0.00,,,0.00,LWC V2.00 B2112,2013-02-17 21:15:00,
2013-02-17 15:20:00,69.7,36.9,29.91,SSW,204,5.0,20.0,30,0.00,,,0.00,LWC V2.00 B2112,2013-02-17 21:20:00,
2013-02-17 15:25:00,69.8,37.0,29.91,West,263,3.0,8.0,30,0.00,,,0.00,LWC V2.00 B2112,2013-02-17 21:25:00,
2013-02-17 15:30:00,69.7,36.9,29.90,SSW,202,0.0,12.0,30,0.00,,,0.00,LWC V2.00 B2112,2013-02-17 21:30:00,
2013-02-17 15:35:00,69.6,37.6,29.90,South,190,5.0,14.0,31,0.00,,,0.00,LWC V2.00 B2112,2013-02-17 21:35:00,
2013-02-17 15:40:00,69.4,37.4,29.90,SW,216,4.0,15.0,31,0.00,,,0.00,LWC V2.00 B2112,2013-02-17 21:40:00,
2013-02-17 15:45:00,69.4,38.3,29.89,WSW,247,1.0,6.0,32,0.00,,,0.00,LWC V2.00 B2112,2013-02-17 21:45:00,
2013-02-17 15:50:00,69.4,39.0,29.89,SSW,206,6.0,11.0,33,0.00,,,0.00,LWC V2.00 B2112,2013-02-17 21:50:00,
2013-02-17 15:55:00,69.3,39.0,29.89,South,173,0.0,11.0,33,0.00,,,0.00,LWC V2.00 B2112,2013-02-17 21:55:00,
2013-02-17 16:00:00,69.4,39.8,29.89,SW,235,5.0,9.0,34,0.00,,,0.00,LWC V2.00 B2112,2013-02-17 22:00:00,
2013-02-17 16:05:00,69.4,40.6,29.89,WSW,239,7.0,13.0,35,0.00,,,0.00,LWC V2.00 B2112,2013-02-17 22:05:00,
2013-02-17 16:10:00,69.1,40.3,29.89,SW,222,4.0,10.0,35,0.00,,,0.00,LWC V2.00 B2112,2013-02-17 22:10:00,
2013-02-17 16:15:00,69.0,40.2,29.89,West,278,4.0,18.0,35,0.00,,,0.00,LWC V2.00 B2112,2013-02-17 22:15:00,
2013-02-17 16:20:00,68.8,40.0,29.90,WSW,246,6.0,13.0,35,0.00,,,0.00,LWC V2.00 B2112,2013-02-17 22:20:00,
2013-02-17 16:25:00,68.6,40.6,29.89,SW,217,4.0,11.0,36,0.00,,,0.00,LWC V2.00 B2112,2013-02-17 22:25:00,
2013-02-17 16:30:00,68.4,41.1,29.89,South,186,5.0,15.0,37,0.00,,,0.00,LWC V2.00 B2112,2013-02-17 22:30:00,
2013-02-17 16:35:00,68.3,41.0,29.89,WSW,240,12.0,14.0,37,0.00,,,0.00,LWC V2.00 B2112,2013-02-17 22:35:00,
2013-02-17 16:40:00,68.3,41.7,29.89,NW,323,1.0,13.0,38,0.00,,,0.00,LWC V2.00 B2112,2013-02-17 22:40:00,
2013-02-17 16:45:00,68.0,41.4,29.89,South,181,2.0,15.0,38,0.00,,,0.00,LWC V2.00 B2112,2013-02-17 22:45:00,
2013-02-17 16:50:00,67.8,41.9,29.88,SSW,213,4.0,12.0,39,0.00,,,0.00,LWC V2.00 B2112,2013-02-17 22:50:00,
2013-02-17 16:55:00,67.7,41.8,29.88,WSW,246,10.0,10.0,39,0.00,,,0.00,LWC V2.00 B2112,2013-02-17 22:55:00,
2013-02-17 17:00:00,67.7,42.5,29.88,SW,216,0.0,11.0,40,0.00,,,0.00,LWC V2.00 B2112,2013-02-17 23:00:00,
2013-02-17 17:05:00,67.7,42.5,29.88,WSW,257,3.0,12.0,40,0.00,,,0.00,LWC V2.00 B2112,2013-02-17 23:05:00,
2013-02-17 17:10:00,67.4,42.9,29.88,West,265,6.0,15.0,41,0.00,,,0.00,LWC V2.00 B2112,2013-02-17 23:10:00,
2013-02-17 17:15:00,67.1,43.2,29.87,South,190,7.0,14.0,42,0.00,,,0.00,LWC V2.00 B2112,2013-02-17 23:15:00,
2013-02-17 17:20:00,66.9,43.7,29.88,SW,227,16.0,16.0,43,0.00,,,0.00,LWC V2.00 B2112,2013-02-17 23:20:00,
2013-02-17 17:25:00,66.8,44.2,29.88,SSW,212,1.0,11.0,44,0.00,,,0.00,LWC V2.00 B2112,2013-02-17 23:25:00,
2013-02-17 17:30:00,66.5,44.5,29.88,South,178,1.0,11.0,45,0.00,,,0.00,LWC V2.00 B2112,2013-02-17 23:30:00,
2013-02-17 17:35:00,66.0,44.6,29.88,SW,225,1.0,6.0,46,0.00,,,0.00,LWC V2.00 B2112,2013-02-17 23:35:00,
2013-02-17 17:40:00,65.7,44.9,29.88,SSW,209,1.0,6.0,47,0.00,,,0.00,LWC V2.00 B2112,2013-02-17 23:40:00,
2013-02-17 17:45:00,65.4,44.6,29.88,SSW,207,5.0,10.0,47,0.00,,,0.00,LWC V2.00 B2112,2013-02-17 23:45:00,
2013-02-17 17:50:00,65.0,44.3,29.87,WSW,252,7.0,15.0,47,0.00,,,0.00,LWC V2.00 B2112,2013-02-17 23:50:00,
2013-02-17 17:55:00,64.7,44.6,29.87,WNW,286,0.0,14.0,48,0.00,,,0.00,LWC V2.00 B2112,2013-02-17 23:55:00,
2013-02-17 18:00:00,64.5,44.9,29.87,SSW,213,6.0,13.0,49,0.00,,,0.00,LWC V2.00 B2112,2013-02-18 00:00:00,
2013-02-17 18:05:00,64.3,45.3,29.88,SSW,213,7.0,11.0,50,0.00,,,0.00,LWC V2.00 B2112,2013-02-18 00:05:00,
2013-02-17 18:10:00,64.1,45.1,29.88,SSW,193,1.0,10.0,50,0.00,,,0.00,LWC V2.00 B2112,2013-02-18 00:10:00,
2013-02-17 18:15:00,63.9,45.9,29.88,SW,225,5.0,6.0,52,0.00,,,0.00,LWC V2.00 B2112,2013-02-18 00:15:00,
2013-02-17 18:20:00,63.6,46.2,29.88,SSW,199,8.0,11.0,53,0.00,,,0.00,LWC V2.00 B2112,2013-02-18 00:20:00,
2013-02-17 18:25:00,63.2,46.3,29.88,SSW,212,5.0,7.0,54,0.00,,,0.00,LWC V2.00 B2112,2013-02-18 00:25:00,
2013-02-17 18:30:00,62.9,46.0,29.88,SSW,202,8.0,14.0,54,0.00,,,0.00,LWC V2.00 B2112,2013-02-18 00:30:00,
2013-02-17 18:35:00,62.6,46.2,29.88,SSW,199,3.0,11.0,55,0.00,,,0.00,LWC V2.00 B2112,2013-02-18 00:35:00,
2013-02-17 18:40:00,62.3,46.4,29.88,SSW,207,12.0,12.0,56,0.00,,,0.00,LWC V2.00 B2112,2013-02-18 00:40:00,
2013-02-17 18:45:00,62.2,46.3,29.88,SSW,208,12.0,15.0,56,0.00,,,0.00,LWC V2.00 B2112,2013-02-18 00:45:00,
2013-02-17 18:50:00,62.0,46.1,29.88,South,173,8.0,12.0,56,0.00,,,0.00,LWC V2.00 B2112,2013-02-18 00:50:00,
2013-02-17 18:55:00,61.8,46.4,29.89,South,173,8.0,8.0,57,0.00,,,0.00,LWC V2.00 B2112,2013-02-18 00:55:00,
2013-02-17 19:00:00,61.7,46.3,29.89,South,191,0.0,18.0,57,0.00,,,0.00,LWC V2.00 B2112,2013-02-18 01:00:00,
2013-02-17 19:05:00,61.5,46.6,29.89,South,186,6.0,10.0,58,0.00,,,0.00,LWC V2.00 B2112,2013-02-18 01:05:00,
2013-02-17 19:10:00,61.4,46.5,29.89,SW,215,1.0,9.0,58,0.00,,,0.00,LWC V2.00 B2112,2013-02-18 01:10:00,
2013-02-17 19:15:00,61.2,46.3,29.89,SSW,213,7.0,12.0,58,0.00,,,0.00,LWC V2.00 B2112,2013-02-18 01:15:00,
2013-02-17 19:20:00,61.1,46.7,29.89,SSW,209,7.0,15.0,59,0.00,,,0.00,LWC V2.00 B2112,2013-02-18 01:20:00,
2013-02-17 19:25:00,61.0,46.6,29.89,South,189,4.0,10.0,59,0.00,,,0.00,LWC V2.00 B2112,2013-02-18 01:25:00,
2013-02-17 19:30:00,61.0,46.6,29.89,WSW,244,6.0,18.0,59,0.00,,,0.00,LWC V2.00 B2112,2013-02-18 01:30:00,
2013-02-17 19:35:00,60.9,46.5,29.88,South,185,2.0,9.0,59,0.00,,,0.00,LWC V2.00 B2112,2013-02-18 01:35:00,
2013-02-17 19:40:00,60.9,47.4,29.89,WSW,237,10.0,12.0,61,0.00,,,0.00,LWC V2.00 B2112,2013-02-18 01:40:00,
2013-02-17 19:45:00,60.8,46.4,29.89,SSW,194,2.0,6.0,59,0.00,,,0.00,LWC V2.00 B2112,2013-02-18 01:45:00,
2013-02-17 19:51:00,60.8,46.8,29.89,SW,226,0.0,10.0,60,0.00,,,0.00,LWC V2.00 B2112,2013-02-18 01:51:00,
2013-02-17 19:56:00,60.7,46.7,29.89,SW,232,3.0,10.0,60,0.00,,,0.00,LWC V2.00 B2112,2013-02-18 01:56:00,
2013-02-17 20:01:00,60.7,47.2,29.89,SSE,162,0.0,14.0,61,0.00,,,0.00,LWC V2.00 B2112,2013-02-18 02:01:00,
2013-02-17 20:06:00,60.7,47.2,29.90,South,178,9.0,11.0,61,0.00,,,0.00,LWC V2.00 B2112,2013-02-18 02:06:00,
2013-02-17 20:11:00,60.6,47.5,29.90,SW,224,0.0,3.0,62,0.00,,,0.00,LWC V2.00 B2112,2013-02-18 02:11:00,
2013-02-17 20:16:00,60.5,47.4,29.90,WSW,240,2.0,12.0,62,0.00,,,0.00,LWC V2.00 B2112,2013-02-18 02:16:00,
2013-02-17 20:21:00,60.5,47.4,29.90,SSW,199,4.0,14.0,62,0.00,,,0.00,LWC V2.00 B2112,2013-02-18 02:21:00,
2013-02-17 20:26:00,60.4,47.7,29.90,SSW,198,2.0,12.0,63,0.00,,,0.00,LWC V2.00 B2112,2013-02-18 02:26:00,
2013-02-17 20:31:00,60.4,47.7,29.90,SW,223,2.0,16.0,63,0.00,,,0.00,LWC V2.00 B2112,2013-02-18 02:31:00,
2013-02-17 20:36:00,60.4,47.7,29.90,SSE,162,6.0,8.0,63,0.00,,,0.00,LWC V2.00 B2112,2013-02-18 02:36:00,
2013-02-17 20:41:00,60.3,48.1,29.90,SW,228,5.0,13.0,64,0.00,,,0.00,LWC V2.00 B2112,2013-02-18 02:41:00,
2013-02-17 20:46:00,60.3,48.1,29.90,SSW,203,5.0,9.0,64,0.00,,,0.00,LWC V2.00 B2112,2013-02-18 02:46:00,
2013-02-17 20:51:00,60.2,48.4,29.90,SW,218,0.0,8.0,65,0.00,,,0.00,LWC V2.00 B2112,2013-02-18 02:51:00,
2013-02-17 20:56:00,60.2,48.4,29.90,SW,215,4.0,7.0,65,0.00,,,0.00,LWC V2.00 B2112,2013-02-18 02:56:00,
2013-02-17 21:01:00,60.2,48.8,29.91,SE,136,0.0,10.0,66,0.00,,,0.00,LWC V2.00 B2112,2013-02-18 03:01:00,
2013-02-17 21:06:00,60.2,48.8,29.90,SW,216,7.0,8.0,66,0.00,,,0.00,LWC V2.00 B2112,2013-02-18 03:06:00,
2013-02-17 21:11:00,60.1,49.1,29.90,SSW,213,9.0,10.0,67,0.00,,,0.00,LWC V2.00 B2112,2013-02-18 03:11:00,
2013-02-17 21:16:00,60.1,49.1,29.90,South,188,6.0,6.0,67,0.00,,,0.00,LWC V2.00 B2112,2013-02-18 03:16:00,
2013-02-17 21:21:00,60.1,49.1,29.90,South,172,2.0,9.0,67,0.00,,,0.00,LWC V2.00 B2112,2013-02-18 03:21:00,
2013-02-17 21:26:00,60.0,49.0,29.90,SW,214,4.0,12.0,67,0.00,,,0.00,LWC V2.00 B2112,2013-02-18 03:26:00,
2013-02-17 21:31:00,60.0,49.4,29.90,SSW,209,4.0,13.0,68,0.00,,,0.00,LWC V2.00 B2112,2013-02-18 03:31:00,
2013-02-17 21:36:00,60.0,49.4,29.89,SSW,209,2.0,13.0,68,0.00,,,0.00,LWC V2.00 B2112,2013-02-18 03:36:00,
2013-02-17 21:41:00,60.0,49.4,29.89,SSW,197,6.0,13.0,68,0.00,,,0.00,LWC V2.00 B2112,2013-02-18 03:41:00,
2013-02-17 21:46:00,60.0,49.4,29.89,SSW,194,6.0,12.0,68,0.00,,,0.00,LWC V2.00 B2112,2013-02-18 03:46:00,
2013-02-17 21:51:00,60.0,49.4,29.89,SSW,196,1.0,9.0,68,0.00,,,0.00,LWC V2.00 B2112,2013-02-18 03:51:00,
2013-02-17 21:56:00,59.9,49.3,29.89,SSW,203,1.0,11.0,68,0.00,,,0.00,LWC V2.00 B2112,2013-02-18 03:56:00,
2013-02-17 22:01:00,59.9,49.7,29.89,SW,230,4.0,9.0,69,0.00,,,0.00,LWC V2.00 B2112,2013-02-18 04:01:00,
2013-02-17 22:06:00,60.0,49.8,29.89,SSE,155,4.0,7.0,69,0.00,,,0.00,LWC V2.00 B2112,2013-02-18 04:06:00,
2013-02-17 22:11:00,59.9,49.7,29.89,South,179,0.0,12.0,69,0.00,,,0.00,LWC V2.00 B2112,2013-02-18 04:11:00,
2013-02-17 22:16:00,59.9,49.7,29.89,South,191,1.0,12.0,69,0.00,,,0.00,LWC V2.00 B2112,2013-02-18 04:16:00,
2013-02-17 22:21:00,59.9,50.1,29.89,SW,218,5.0,11.0,70,0.00,,,0.00,LWC V2.00 B2112,2013-02-18 04:21:00,
2013-02-17 22:26:00,59.9,50.1,29.88,SSW,198,6.0,9.0,70,0.00,,,0.00,LWC V2.00 B2112,2013-02-18 04:26:00,
2013-02-17 22:31:00,60.0,50.2,29.88,SSW,192,6.0,10.0,70,0.00,,,0.00,LWC V2.00 B2112,2013-02-18 04:31:00,
2013-02-17 22:36:00,59.9,50.1,29.88,SW,233,5.0,8.0,70,0.00,,,0.00,LWC V2.00 B2112,2013-02-18 04:36:00,
2013-02-17 22:41:00,59.9,50.5,29.87,SSW,205,0.0,6.0,71,0.00,,,0.00,LWC V2.00 B2112,2013-02-18 04:41:00,
2013-02-17 22:46:00,59.9,50.5,29.87,WSW,246,7.0,10.0,71,0.00,,,0.00,LWC V2.00 B2112,2013-02-18 04:46:00,
2013-02-17 22:51:00,59.9,50.5,29.87,South,189,3.0,4.0,71,0.00,,,0.00,LWC V2.00 B2112,2013-02-18 04:51:00,
2013-02-17 22:56:00,59.8,50.4,29.87,SSW,193,0.0,8.0,71,0.00,,,0.00,LWC V2.00 B2112,2013-02-18 04:56:00,
2013-02-17 23:00:00,59.8,50.8,29.87,SSW,196,3.0,4.0,72,0.00,,,0.00,LWC V2.00 B2112,2013-02-18 05:00:00,
2013-02-17 23:05:00,59.8,50.8,29.86,South,183,3.0,8.0,72,0.00,,,0.00,LWC V2.00 B2112,2013-02-18 05:05:00,
2013-02-17 23:10:00,59.8,50.8,29.87,West,263,3.0,7.0,72,0.00,,,0.00,LWC V2.00 B2112,2013-02-18 05:10:00,
2013-02-17 23:15:00,59.9,51.2,29.86,SSW,200,8.0,10.0,73,0.00,,,0.00,LWC V2.00 B2112,2013-02-18 05:15:00,
2013-02-17 23:20:00,59.9,51.2,29.86,SW,217,3.0,11.0,73,0.00,,,0.00,LWC V2.00 B2112,2013-02-18 05:20:00,
2013-02-17 23:25:00,59.9,51.6,29.86,SW,219,3.0,16.0,74,0.00,,,0.00,LWC V2.00 B2112,2013-02-18 05:25:00,
2013-02-17 23:30:00,59.9,51.6,29.86,SSW,201,3.0,7.0,74,0.00,,,0.00,LWC V2.00 B2112,2013-02-18 05:30:00,
2013-02-17 23:35:00,59.9,51.6,29.87,SSW,192,2.0,9.0,74,0.00,,,0.00,LWC V2.00 B2112,2013-02-18 05:35:00,
2013-02-17 23:40:00,59.9,51.6,29.86,SSW,196,0.0,14.0,74,0.00,,,0.00,LWC V2.00 B2112,2013-02-18 05:40:00,
2013-02-17 23:45:00,59.9,51.6,29.86,WNW,299,6.0,11.0,74,0.00,,,0.00,LWC V2.00 B2112,2013-02-18 05:45:00,
2013-02-17 23:50:00,59.9,52.0,29.86,SW,229,3.0,13.0,75,0.00,,,0.00,LWC V2.00 B2112,2013-02-18 05:50:00,
2013-02-17 23:55:00,59.8,51.9,29.85,West,262,0.0,11.0,75,0.00,,,0.00,LWC V2.00 B2112,2013-02-18 05:55:00,